Temp_Advection
nan nan nan nan nan nan nan nan nan nan nan nan nan nan nan nan nan nan nan nan nan nan nan nan nan nan nan nan nan nan nan nan nan nan nan nan nan nan nan nan nan nan nan nan nan
nan -0 -0 -0 -0 -0 -0 -0 -0 -0 -0 -0 -0 -0 -0 -0 -1 -5 -5 -1 -3 1 0 0 -1 -1 -1 -1 -0 -0 -1 -1 -1 -0 -0 0 0 -0 -1 -1 -0 -0 0 0 nan
nan -0 -0 -0 -0 -0 -0 -0 -0 -0 -0 -0 -0 -0 -0 0 -1 -6 -4 2 2 1 0 -0 -0 -0 -2 -0 -1 -1 -1 -1 -0 0 -0 0 0 -0 -0 -1 -1 -0 -1 0 nan
nan -0 -0 -0 -0 -1 -0 -0 -0 -0 -0 -0 0 -0 -0 -1 -1 0 -0 0 0 1 1 -1 0 -1 -0 -0 -1 -1 -2 -0 0 0 0 0 0 -0 -0 -0 0 -1 -1 1 nan
nan -0 -0 -0 -0 -0 -0 -0 -0 -0 0 -1 -0 0 -0 -1 -4 -1 0 0 -0 1 -0 -0 -0 -1 -1 -1 -0 -1 -0 0 -0 0 0 0 0 0 0 0 1 0 -1 -1 nan
nan -0 0 -0 -0 -0 -0 0 1 0 1 1 -0 -0 -0 -1 -1 -1 -1 -1 1 0 -1 -0 -1 -1 -1 -0 -0 -0 0 -0 0 0 -0 -0 0 0 0 1 1 -0 -0 -1 nan
nan -0 -0 2 1 1 1 -0 1 1 0 1 1 0 -0 -1 -1 -0 0 0 -0 -1 -1 -1 -0 0 -1 -0 0 0 -0 -0 -1 -0 0 1 -0 -1 0 0 -0 0 0 -0 nan
nan -0 -0 1 2 1 1 0 0 -0 -0 0 1 -0 -0 0 -0 -0 -0 -1 -1 -1 -1 -0 0 -1 -0 1 0 0 0 -0 -0 -0 0 0 -2 -1 0 0 0 0 0 0 nan
nan 0 1 -0 0 -0 -1 -1 -0 -1 -0 0 0 0 -0 1 0 -0 -1 -1 -1 -0 -1 -1 -1 -0 0 0 0 0 1 -1 -1 -0 1 0 -1 -1 0 0 -0 -0 -1 -1 nan
nan 0 1 -0 0 -0 -1 -1 -2 -0 -1 -0 -0 -0 -0 0 1 1 0 -1 -1 -1 -0 -1 -0 -0 -0 -0 -1 -1 -1 -0 -1 0 1 -0 -2 -0 1 1 0 -0 -1 1 nan
nan 0 0 -0 -0 -0 -0 -1 -2 -1 -2 -0 -1 -0 -1 -0 0 1 1 -0 -1 -1 -1 -1 0 -1 -2 -1 -1 -0 0 -0 -1 0 1 -1 -0 -0 0 0 -0 -0 1 1 nan
nan 0 -0 -0 -0 -0 -0 -1 -0 -1 -1 -0 0 0 0 -0 -0 0 0 -0 -0 -0 -0 0 -1 -2 -1 0 0 0 -0 -0 0 1 0 -0 -0 -0 1 -0 -0 0 0 -0 nan
nan -0 -0 -0 -0 0 -0 0 1 -0 -1 -1 0 0 0 -0 -0 0 0 -0 -0 -0 -0 -1 -2 -0 0 1 -0 -0 -0 -0 1 1 -0 -0 -0 -0 -0 -0 0 -0 0 1 nan
nan -0 -0 0 -0 -1 -0 2 1 -0 -0 0 -0 0 0 0 -0 -0 -1 -0 -0 -0 -1 -0 -1 0 1 -0 -1 -0 -1 0 0 0 -0 0 -1 -1 0 0 -0 -0 0 -1 nan
nan 0 -0 0 0 0 0 1 0 -0 -0 -1 -0 -0 0 0 -0 -0 -1 0 -0 -1 -0 -0 -0 -0 -1 -1 -0 -1 0 1 0 -0 0 0 -0 -1 -0 -0 -2 -1 -0 1 nan
nan 0 -0 -0 -0 1 1 0 0 -0 0 -1 -0 -0 -0 -0 -0 -0 0 -0 0 -1 -1 -1 0 0 -0 0 -0 0 1 1 1 1 0 -2 -1 -1 -1 -2 -1 -0 1 1 nan
nan 0 -0 0 -0 0 0 0 -0 -0 -0 0 -0 -1 -0 -0 -0 -0 0 -1 0 -0 -1 -1 0 0 -1 1 1 1 0 -0 0 0 -2 -1 -0 -2 -1 -1 0 1 1 1 nan
nan 0 -0 -0 1 -0 0 -0 -1 -0 -1 -1 0 -0 -0 -0 -0 -0 -0 0 0 -0 -0 -1 -0 0 -0 0 0 0 0 -1 -1 -1 -2 -0 -0 -1 -0 1 2 0 -1 0 nan
nan -0 -1 -1 -0 -0 -0 -1 0 -0 -0 -1 -1 -0 -0 -0 -0 -0 -0 0 -0 -0 0 -0 -0 -1 -0 -0 -0 -1 -1 -0 -1 -0 0 -0 -1 0 0 -0 -1 -0 1 2 nan
nan -0 -1 -0 -0 -0 -0 -0 -0 0 0 -0 -0 -0 -0 -1 -0 -0 -0 0 0 0 0 0 -1 -0 -1 -0 -1 0 0 0 -0 0 -0 -1 -0 -0 -0 -0 0 1 1 1 nan
nan -0 -0 -1 0 -0 -0 -0 -0 -0 0 -0 0 -0 -0 -0 -0 -0 -0 -0 0 -0 -0 0 -0 -1 -0 -0 0 0 0 -1 -0 0 -0 -0 -1 0 1 -1 -1 -0 -0 -0 nan
nan -0 -0 -0 -0 -0 0 0 -0 -0 -0 0 -0 0 0 -0 -0 -0 -0 -0 -0 0 -0 -0 0 -0 -1 -0 -0 0 0 0 0 -0 -0 -0 0 -2 -2 -2 -2 -2 -3 -2 nan
nan -0 -0 -1 -1 -0 -0 0 0 -0 -0 -0 -0 -0 0 0 -0 -1 -0 -0 0 0 0 -0 -0 -0 0 0 -1 -0 0 1 0 0 1 -0 -0 -2 -2 -2 -2 -2 -3 -2 nan
nan 0 -0 -0 0 -0 -0 -0 -0 -0 0 -0 -0 -0 -0 -1 0 0 -0 -0 0 -0 0 0 -0 -0 -0 -0 -0 -1 -2 -2 -2 1 0 -1 2 -4 -2 -2 -1 -2 -2 -2 nan
nan -0 -0 -0 -0 0 0 -0 -0 -0 -0 -0 -0 0 0 -0 -1 -0 -0 0 -0 0 -0 -0 -0 -0 -0 0 -1 -1 -0 0 -0 -2 -1 0 6 -3 -1 -1 -1 -1 -1 -2 nan
nan -0 -0 0 -0 0 0 0 -0 0 0 -0 -0 -0 0 0 -0 -0 -1 -0 -0 0 -0 -0 -0 -0 -0 -0 -1 -0 -2 -1 -2 -2 -2 -2 -0 -2 -1 -1 -1 -2 -1 -2 nan
nan nan nan nan nan nan nan nan nan nan nan nan nan nan nan nan nan nan nan nan nan nan nan nan nan nan nan nan nan nan nan nan nan nan nan nan nan nan nan nan nan nan nan nan nan
Wind_Speed
26 26 27 27 28 27 27 27 27 26 26 26 25 26 26 26 28 30 37 44 38 18 20 20 30 29 29 24 23 22 15 20 28 23 24 15 16 17 9 16 12 11 18 17 13
29 29 29 29 31 30 30 29 28 27 28 29 28 26 27 26 31 45 46 41 41 40 22 26 38 35 30 27 19 13 18 27 21 24 20 21 16 19 12 16 7 14 19 19 24
28 29 30 30 30 31 31 30 30 30 30 28 27 26 25 24 31 33 40 45 46 40 40 25 34 36 31 29 26 26 26 22 29 31 23 23 20 25 16 18 20 27 18 29 28
30 31 31 31 32 32 32 31 31 30 30 31 29 26 24 18 12 6 16 4 30 39 36 35 29 39 22 25 34 23 35 33 32 31 26 22 26 16 27 19 10 24 35 29 26
31 32 34 35 35 34 33 32 32 31 32 32 29 27 24 26 45 20 11 14 4 36 42 45 42 38 32 27 29 32 24 39 37 31 31 26 24 24 24 20 26 27 28 33 31
35 37 38 37 35 35 34 34 34 34 33 31 26 22 23 32 26 26 29 30 20 19 29 43 34 49 32 31 32 21 29 31 33 36 29 20 22 24 28 21 24 34 33 34 35
36 38 40 39 36 36 34 33 33 33 32 27 24 25 34 48 28 18 22 22 23 17 27 43 44 38 42 27 42 41 23 28 30 30 18 26 22 28 25 19 24 31 34 30 39
37 39 42 42 37 36 33 30 32 34 27 31 28 21 18 15 17 23 21 26 24 25 27 25 44 37 27 30 14 32 26 27 27 26 20 19 34 22 32 27 26 26 30 34 36
37 40 44 37 35 36 33 31 33 30 29 29 12 17 8 23 20 20 13 17 18 19 22 22 33 41 29 15 21 19 26 34 28 25 21 26 27 21 27 33 32 29 28 34 40
39 43 43 34 35 33 32 34 29 23 33 11 6 8 7 22 27 21 17 15 17 14 12 23 18 19 23 20 27 33 30 25 32 26 26 23 26 16 20 26 32 33 35 40 44
41 43 37 34 37 28 34 24 23 15 33 10 24 15 24 30 25 23 17 10 11 15 14 24 16 27 36 38 28 26 24 30 23 21 19 29 22 25 22 16 21 29 30 35 36
41 41 33 37 36 27 32 11 13 12 15 10 16 13 18 22 29 16 15 6 5 11 13 15 23 26 28 28 34 32 28 27 18 17 17 19 22 24 19 22 28 27 27 30 28
42 40 30 36 31 30 24 11 24 14 6 10 17 10 25 28 17 22 14 16 11 14 15 20 21 25 24 28 31 34 34 23 22 10 11 13 18 19 21 24 28 30 35 31 31
46 41 28 36 22 34 17 37 25 2 3 15 21 9 30 31 7 21 21 17 6 11 20 14 18 22 29 28 29 30 28 23 15 11 13 14 13 20 21 24 21 31 31 35 32
49 35 28 34 35 27 33 40 12 4 4 18 12 17 27 25 21 27 25 12 7 16 7 12 17 21 24 32 26 22 20 21 18 16 11 10 9 21 9 17 27 25 30 32 34
48 26 28 36 32 36 35 29 2 3 6 12 15 22 24 28 19 22 17 25 6 10 12 19 8 14 30 16 25 17 20 20 18 13 13 26 18 15 20 26 18 21 28 29 32
49 16 30 35 38 35 31 8 1 6 16 14 19 24 18 24 20 22 16 17 16 11 11 12 19 4 7 19 22 23 19 7 7 7 19 24 18 25 11 22 25 21 22 27 31
45 10 31 29 29 28 18 5 9 14 9 16 15 14 11 22 19 22 17 15 17 18 6 8 11 21 10 9 13 29 26 13 14 12 18 9 13 15 13 27 29 15 20 26 28
40 11 28 32 26 19 10 9 6 9 11 13 18 11 13 20 13 17 16 9 11 16 12 7 4 12 11 8 17 25 25 22 21 21 7 11 20 16 10 10 14 20 29 26 25
39 8 29 29 19 17 7 8 5 8 13 9 10 6 16 19 18 20 11 7 10 15 13 4 7 2 6 4 14 22 26 12 9 17 13 17 19 10 8 14 16 15 13 18 13
31 8 24 30 11 16 7 5 6 12 15 6 11 8 14 19 19 17 9 12 15 16 18 11 4 7 1 6 12 7 16 14 15 11 13 15 14 9 13 9 11 5 4 7 9
15 4 22 27 16 9 10 10 11 13 17 5 8 8 12 20 12 9 17 11 23 16 14 6 4 5 8 7 4 13 13 20 11 20 12 5 7 13 15 14 15 14 17 15 12
14 6 16 18 8 12 15 6 9 14 15 7 7 8 10 12 9 14 11 20 20 18 3 5 3 6 5 8 9 2 7 19 19 14 18 11 6 10 17 17 20 19 27 24 18
11 5 7 6 6 8 12 8 16 20 12 12 12 10 16 21 15 10 12 9 25 10 3 5 3 6 7 5 5 7 14 11 11 15 17 17 16 17 19 20 21 26 28 26 22
10 4 3 7 10 9 10 5 16 14 6 11 5 17 19 8 14 13 21 16 12 10 5 2 5 9 14 7 10 17 11 8 1 8 6 11 18 15 16 17 16 20 24 25 25
10 7 8 16 7 10 5 9 16 20 7 11 10 23 20 10 11 21 21 8 5 9 5 4 3 7 3 19 22 17 25 13 15 14 12 7 6 21 22 20 18 24 26 24 25
18 14 9 10 5 8 6 12 16 17 9 11 18 20 17 17 28 24 13 13 7 7 13 3 4 4 4 10 4 10 14 15 14 19 8 9 12 21 22 20 20 22 26 30 31
Wind_Direction
355 352 345 342 338 335 330 327 325 323 320 316 313 309 305 301 293 274 252 238 233 207 199 211 196 195 189 196 198 209 222 229 233 232 234 235 211 206 193 183 214 216 245 213 236
353 349 345 341 338 332 328 326 323 317 315 312 310 308 307 302 292 272 251 243 236 225 210 201 195 189 190 196 193 201 225 227 228 235 237 233 215 179 166 153 197 249 252 210 249
350 346 342 340 335 332 329 323 321 317 315 313 308 307 306 306 300 278 269 254 242 231 220 208 206 193 201 198 194 211 229 227 235 235 235 241 220 196 196 184 186 204 226 236 236
349 346 344 341 339 335 329 324 320 317 315 310 307 301 297 289 253 115 82 185 243 226 213 205 201 203 212 202 205 214 219 228 234 232 231 232 225 216 210 204 227 211 222 230 220
349 346 345 343 340 337 331 329 322 319 311 308 308 303 294 263 247 243 285 301 197 208 212 209 206 202 211 213 213 220 218 221 231 231 225 231 228 226 227 219 216 253 226 227 237
350 348 345 341 337 332 328 325 321 321 319 311 306 310 285 266 279 261 261 267 252 253 227 210 215 208 218 222 215 215 228 229 226 230 229 226 230 226 233 219 201 209 229 220 242
346 344 342 339 335 330 325 324 328 327 324 321 310 294 284 264 268 255 255 276 277 263 236 220 213 205 216 216 226 227 224 234 233 222 223 226 247 223 221 199 211 219 218 220 242
345 343 341 341 340 336 333 332 329 330 322 326 309 298 271 290 281 265 274 284 276 256 248 222 213 223 220 221 205 224 236 237 228 226 216 180 245 219 221 215 218 216 216 214 232
346 344 341 344 343 338 336 333 330 335 333 330 333 314 278 345 350 311 293 288 287 283 246 237 214 214 219 223 213 211 225 224 235 217 209 209 242 237 226 209 218 207 209 218 225
347 346 344 345 342 336 338 337 337 343 342 21 335 347 326 331 331 304 309 308 270 274 226 207 212 202 211 205 207 208 218 220 225 214 207 221 236 234 210 206 215 217 216 223 230
351 349 347 345 345 341 342 354 360 345 342 306 296 284 302 322 327 323 320 284 273 260 227 197 207 206 203 210 217 217 213 220 231 215 210 227 228 227 233 220 222 224 216 214 221
355 350 347 342 347 343 349 17 358 321 303 328 327 319 320 326 315 343 353 315 194 235 236 235 226 211 215 211 215 224 225 222 224 212 217 232 229 239 225 225 218 214 219 221 221
356 349 346 343 347 346 351 346 329 324 262 302 344 332 340 338 318 334 330 325 283 229 231 233 224 224 215 209 208 214 216 210 217 193 236 254 243 227 233 230 235 239 235 230 222
356 351 352 346 352 342 342 334 333 312 274 357 353 359 346 345 14 343 349 307 254 223 223 238 237 236 219 221 212 217 213 215 193 201 224 197 252 229 220 224 228 236 226 229 229
356 354 358 354 345 342 328 337 337 143 352 335 340 325 343 6 331 2 357 354 313 308 228 199 218 215 231 215 215 225 205 210 203 217 231 207 237 243 203 218 228 231 234 228 226
355 358 359 358 353 340 336 338 79 270 357 335 337 338 348 359 358 356 11 19 248 321 250 246 187 219 217 211 212 203 191 196 210 223 243 230 224 236 222 230 242 237 231 229 227
355 3 5 358 347 345 344 359 47 32 334 337 335 338 340 353 352 2 359 27 27 355 353 269 234 217 306 205 191 186 163 151 176 193 233 226 231 236 248 242 251 245 239 230 227
355 354 360 1 352 355 5 39 56 354 352 318 331 326 354 354 342 349 359 15 32 17 318 3 204 221 192 215 181 194 183 188 178 199 222 201 222 238 238 243 247 246 246 247 239
358 41 9 8 8 10 31 42 18 352 324 316 324 336 349 352 344 346 350 3 35 27 10 339 297 341 220 218 170 188 199 199 220 233 261 215 243 259 238 241 240 239 244 233 228
356 20 12 1 7 14 39 46 351 345 329 313 329 335 335 342 344 343 336 348 1 13 2 310 290 339 329 259 242 186 193 200 217 205 213 223 230 222 201 238 242 244 252 260 263
358 5 359 9 21 28 29 345 305 325 344 315 320 305 321 338 331 330 320 335 356 345 340 314 260 306 231 208 192 194 198 216 223 225 223 233 223 183 226 34 6 335 308 306 289
354 334 349 6 29 14 3 326 315 322 337 298 294 298 329 328 316 335 317 314 336 332 330 327 298 284 270 309 298 202 182 200 206 205 232 264 210 57 72 44 24 13 4 7 0
340 293 352 17 18 1 350 327 340 336 333 330 312 327 324 323 313 328 328 317 317 320 311 341 328 302 184 129 16 320 225 215 224 219 219 207 152 38 32 23 14 4 356 353 358
350 339 350 359 36 347 339 334 350 339 320 325 290 307 328 326 334 298 313 320 330 345 340 246 282 282 296 350 353 346 351 326 272 224 222 216 221 30 9 0 356 357 354 354 358
12 353 329 319 345 335 330 303 339 350 328 331 302 330 341 322 333 348 334 338 346 357 356 349 289 319 301 290 98 47 14 37 323 0 266 226 213 17 357 344 342 349 352 354 355
0 339 313 299 293 325 344 335 337 340 314 317 314 325 330 323 329 317 321 336 334 334 5 358 303 333 316 99 94 53 32 54 40 6 7 336 100 359 339 340 349 353 350 352 348
342 326 312 295 324 334 347 328 320 332 307 292 312 316 319 340 320 307 293 262 272 341 353 294 300 324 126 148 7 19 359 64 70 44 12 22 336 335 335 333 331 344 352 343 342
Height
1504 1500 1495 1491 1487 1482 1478 1474 1469 1465 1462 1459 1455 1452 1449 1446 1442 1439 1430 1429 1436 1442 1443 1448 1452 1455 1459 1461 1462 1465 1460 1446 1444 1450 1444 1452 1456 1460 1462 1467 1473 1473 1470 1470 1474
1503 1499 1494 1489 1484 1479 1474 1469 1465 1462 1458 1454 1451 1447 1445 1440 1433 1418 1421 1423 1429 1436 1437 1440 1442 1445 1450 1450 1455 1456 1449 1439 1443 1441 1446 1449 1451 1457 1460 1465 1469 1470 1469 1468 1471
1502 1496 1492 1487 1481 1475 1471 1465 1460 1455 1451 1447 1445 1443 1439 1437 1427 1398 1410 1412 1418 1424 1431 1435 1439 1440 1438 1439 1438 1442 1432 1441 1437 1441 1443 1446 1450 1452 1455 1455 1459 1466 1466 1467 1468
1500 1493 1487 1481 1476 1470 1464 1459 1455 1450 1445 1439 1436 1435 1434 1434 1422 1402 1400 1409 1408 1413 1422 1426 1430 1431 1429 1426 1429 1427 1428 1432 1431 1438 1441 1442 1445 1445 1444 1446 1454 1461 1462 1463 1463
1497 1491 1485 1478 1472 1466 1460 1454 1449 1443 1438 1435 1428 1428 1426 1418 1399 1403 1397 1403 1402 1407 1408 1412 1416 1419 1414 1419 1424 1418 1415 1423 1427 1429 1434 1439 1438 1440 1438 1442 1446 1455 1460 1461 1460
1495 1488 1481 1474 1468 1462 1455 1450 1442 1435 1430 1426 1422 1420 1419 1400 1402 1400 1399 1398 1401 1400 1400 1405 1403 1406 1409 1409 1412 1410 1417 1415 1419 1421 1427 1431 1430 1435 1434 1438 1443 1444 1448 1452 1454
1493 1486 1479 1472 1465 1457 1450 1444 1436 1430 1424 1419 1415 1413 1408 1393 1394 1395 1392 1391 1393 1394 1395 1394 1402 1401 1404 1402 1406 1411 1412 1414 1409 1414 1418 1426 1427 1419 1427 1432 1436 1438 1440 1446 1447
1491 1483 1475 1467 1459 1452 1445 1439 1431 1425 1418 1413 1407 1403 1395 1391 1387 1390 1390 1382 1384 1387 1387 1388 1393 1397 1397 1398 1399 1402 1408 1398 1394 1409 1416 1422 1394 1411 1420 1426 1428 1431 1433 1436 1437
1488 1479 1471 1462 1456 1448 1441 1434 1427 1419 1412 1405 1402 1400 1392 1387 1386 1383 1384 1382 1378 1378 1379 1384 1387 1388 1397 1393 1395 1388 1377 1388 1393 1394 1407 1410 1394 1403 1409 1415 1418 1422 1427 1430 1432
1485 1476 1468 1460 1454 1445 1439 1432 1423 1416 1411 1402 1401 1397 1390 1387 1384 1381 1379 1378 1376 1375 1374 1378 1377 1377 1379 1379 1356 1360 1373 1376 1382 1386 1398 1395 1394 1396 1400 1405 1408 1413 1417 1421 1423
1484 1475 1466 1459 1451 1443 1436 1427 1426 1419 1410 1413 1407 1404 1393 1387 1382 1378 1375 1374 1374 1371 1366 1365 1364 1352 1353 1354 1364 1360 1363 1373 1374 1381 1390 1384 1393 1392 1393 1401 1402 1405 1407 1410 1413
1480 1471 1464 1457 1448 1442 1436 1433 1435 1434 1418 1407 1404 1400 1395 1388 1378 1375 1375 1371 1368 1366 1365 1362 1351 1353 1358 1362 1365 1362 1361 1360 1375 1376 1385 1382 1385 1382 1391 1391 1391 1394 1399 1400 1405
1478 1468 1461 1454 1446 1441 1436 1433 1430 1427 1424 1408 1404 1399 1393 1388 1379 1375 1372 1370 1363 1360 1361 1354 1342 1352 1351 1353 1356 1350 1350 1364 1370 1379 1383 1382 1383 1385 1380 1384 1385 1386 1388 1393 1395
1476 1467 1460 1452 1446 1438 1435 1429 1424 1422 1417 1406 1402 1399 1393 1385 1376 1377 1373 1368 1355 1348 1347 1349 1347 1343 1348 1345 1348 1346 1354 1361 1369 1376 1376 1379 1370 1362 1369 1371 1377 1373 1376 1378 1385
1474 1465 1460 1451 1445 1438 1434 1425 1419 1421 1415 1414 1406 1403 1400 1394 1387 1378 1375 1362 1355 1352 1341 1333 1332 1340 1336 1333 1345 1348 1353 1361 1366 1369 1370 1374 1377 1347 1356 1362 1355 1358 1364 1371 1375
1472 1464 1458 1452 1445 1439 1430 1423 1420 1415 1420 1414 1412 1404 1395 1389 1385 1379 1375 1368 1359 1351 1338 1329 1328 1331 1330 1338 1340 1352 1353 1363 1368 1373 1380 1358 1362 1347 1339 1332 1344 1348 1353 1359 1364
1472 1464 1458 1452 1444 1435 1427 1422 1418 1429 1425 1418 1413 1406 1398 1391 1383 1380 1373 1372 1371 1360 1353 1337 1330 1333 1332 1336 1339 1345 1349 1367 1386 1388 1346 1345 1360 1332 1328 1333 1335 1341 1346 1350 1353
1469 1463 1460 1454 1446 1436 1429 1425 1433 1434 1431 1424 1417 1409 1403 1395 1387 1383 1378 1374 1374 1371 1366 1355 1334 1325 1333 1331 1329 1334 1326 1332 1349 1351 1320 1336 1337 1328 1325 1333 1336 1336 1339 1341 1344
1468 1464 1460 1454 1446 1439 1434 1437 1444 1442 1440 1428 1414 1409 1403 1399 1398 1387 1381 1378 1379 1378 1380 1364 1339 1333 1323 1332 1325 1330 1331 1326 1329 1318 1333 1328 1326 1322 1328 1332 1331 1330 1332 1334 1336
1466 1463 1461 1456 1450 1442 1439 1444 1443 1443 1438 1431 1422 1417 1410 1402 1398 1391 1383 1379 1382 1380 1381 1371 1362 1338 1333 1328 1326 1321 1322 1336 1328 1328 1339 1317 1320 1321 1320 1320 1321 1325 1329 1330 1332
1467 1463 1463 1457 1451 1448 1450 1451 1447 1443 1439 1434 1425 1422 1413 1408 1402 1393 1389 1382 1380 1380 1379 1372 1369 1339 1339 1329 1322 1326 1325 1323 1317 1315 1320 1318 1313 1314 1317 1328 1326 1325 1328 1328 1327
1473 1466 1462 1457 1456 1457 1454 1454 1449 1441 1438 1433 1428 1421 1415 1412 1402 1395 1390 1387 1385 1383 1377 1373 1367 1357 1334 1329 1332 1320 1323 1325 1320 1319 1315 1320 1318 1330 1332 1338 1337 1335 1334 1330 1331
1472 1470 1466 1463 1460 1459 1457 1455 1450 1443 1438 1434 1430 1423 1419 1414 1408 1397 1392 1387 1385 1383 1378 1375 1363 1352 1324 1333 1342 1336 1325 1324 1317 1318 1318 1327 1318 1342 1342 1342 1345 1342 1338 1333 1331
1480 1473 1467 1465 1469 1468 1461 1454 1448 1444 1439 1437 1431 1426 1420 1410 1405 1400 1396 1390 1383 1379 1376 1376 1369 1362 1352 1357 1368 1362 1358 1353 1338 1320 1319 1317 1315 1350 1353 1354 1351 1349 1345 1341 1335
1484 1484 1481 1470 1466 1469 1465 1460 1452 1447 1441 1438 1430 1426 1424 1414 1402 1399 1392 1389 1383 1382 1379 1377 1371 1362 1356 1360 1369 1374 1369 1358 1349 1353 1331 1313 1316 1371 1374 1370 1364 1360 1355 1347 1341
1489 1487 1482 1474 1471 1469 1464 1459 1454 1448 1448 1438 1435 1425 1423 1419 1415 1407 1405 1395 1391 1383 1382 1381 1374 1374 1361 1358 1368 1376 1372 1369 1377 1380 1371 1357 1361 1383 1378 1374 1370 1362 1358 1354 1350
1492 1486 1482 1471 1468 1467 1464 1461 1455 1453 1443 1440 1435 1428 1420 1413 1410 1405 1403 1400 1396 1391 1385 1383 1379 1373 1360 1362 1354 1364 1399 1394 1403 1405 1401 1395 1400 1393 1382 1380 1375 1368 1363 1354 1347